DAL1945 KATL-MYNN

Flight info

Callsign DAL1945
Flight time 1h 39m
Altitude 35000
Route VRSTY3 NOKIE DCT YANTI Q89 SHRKS DCT DEBRL Q97 MALET DCT TRV DCT ZFP BR63V MELON
Aircraft B738/M-SDE2E3FGHIRWXY/LB1

Departure

Time 2026-05-05 02:12
Airport Hartsfield Jackson Atlanta International Airport (KATL)

Arrival

Time 2026-05-05 03:51
Airport Lynden Pindling International Airport (MYNN)
Time Latitude Longitude Altitude Speed Heading
2026-05-05 01:42 33.63876 -84.43643 1034 ft 0 kts 90°
2026-05-05 01:56 33.63876 -84.43654 1034 ft 2 kts 89°
2026-05-05 01:57 33.63876 -84.43674 1034 ft 2 kts 89°
2026-05-05 01:57 33.63875 -84.43693 1034 ft 2 kts 89°
2026-05-05 01:57 33.63876 -84.43711 1034 ft 2 kts 114°
2026-05-05 01:57 33.63885 -84.43722 1034 ft 2 kts 165°
2026-05-05 01:58 33.63900 -84.43723 1034 ft 2 kts 180°
2026-05-05 01:58 33.63916 -84.43723 1034 ft 1 kts 180°
2026-05-05 01:58 33.63917 -84.43723 1034 ft 0 kts 180°
2026-05-05 02:02 33.63910 -84.43723 1034 ft 5 kts 180°
2026-05-05 02:02 33.63828 -84.43723 1034 ft 14 kts 180°
2026-05-05 02:03 33.63733 -84.43722 1034 ft 13 kts 180°
2026-05-05 02:03 33.63666 -84.43668 1034 ft 13 kts 100°
2026-05-05 02:03 33.63665 -84.43564 1034 ft 12 kts 88°
2026-05-05 02:03 33.63665 -84.43464 1034 ft 12 kts 90°
2026-05-05 02:04 33.63665 -84.43368 1034 ft 11 kts 90°
2026-05-05 02:04 33.63664 -84.43276 1034 ft 11 kts 90°
2026-05-05 02:04 33.63663 -84.43187 1034 ft 10 kts 90°
2026-05-05 02:04 33.63663 -84.43103 1034 ft 10 kts 90°
2026-05-05 02:05 33.63662 -84.43022 1034 ft 10 kts 90°
2026-05-05 02:05 33.63664 -84.42934 1034 ft 14 kts 87°
2026-05-05 02:05 33.63667 -84.42816 1034 ft 14 kts 90°
2026-05-05 02:05 33.63660 -84.42706 1034 ft 13 kts 95°
2026-05-05 02:06 33.63654 -84.42600 1034 ft 12 kts 91°
2026-05-05 02:06 33.63653 -84.42499 1034 ft 12 kts 91°
2026-05-05 02:06 33.63655 -84.42399 1034 ft 13 kts 86°
2026-05-05 02:06 33.63656 -84.42267 1034 ft 17 kts 92°
2026-05-05 02:07 33.63656 -84.42131 1034 ft 16 kts 89°
2026-05-05 02:07 33.63657 -84.42004 1034 ft 15 kts 89°
2026-05-05 02:07 33.63658 -84.41883 1034 ft 14 kts 90°
2026-05-05 02:07 33.63658 -84.41770 1034 ft 13 kts 90°
2026-05-05 02:08 33.63658 -84.41663 1034 ft 13 kts 90°
2026-05-05 02:08 33.63659 -84.41560 1034 ft 13 kts 90°
2026-05-05 02:08 33.63652 -84.41441 1034 ft 16 kts 103°
2026-05-05 02:08 33.63649 -84.41303 1034 ft 18 kts 86°
2026-05-05 02:09 33.63661 -84.41151 1034 ft 18 kts 93°
2026-05-05 02:09 33.63658 -84.41039 1034 ft 13 kts 92°
2026-05-05 02:09 33.63648 -84.40937 1034 ft 12 kts 133°
2026-05-05 02:09 33.63574 -84.40910 1034 ft 7 kts 183°
2026-05-05 02:10 33.63568 -84.40910 1034 ft 0 kts 183°
2026-05-05 02:11 33.63566 -84.40910 1034 ft 3 kts 183°
2026-05-05 02:11 33.63485 -84.40928 1034 ft 15 kts 225°
2026-05-05 02:12 33.63472 -84.41144 1034 ft 58 kts 269°
2026-05-05 02:12 33.63473 -84.43307 1119 ft 185 kts 268°
2026-05-05 02:12 33.63392 -84.44950 1675 ft 207 kts 262°
2026-05-05 02:13 33.63270 -84.46735 2236 ft 215 kts 269°
2026-05-05 02:13 33.63286 -84.48492 2671 ft 213 kts 270°
2026-05-05 02:13 33.63317 -84.50331 3140 ft 227 kts 268°
2026-05-05 02:13 33.63338 -84.52257 3558 ft 235 kts 268°
2026-05-05 02:14 33.63354 -84.54257 4015 ft 240 kts 267°
2026-05-05 02:14 33.63372 -84.56267 4470 ft 243 kts 268°
2026-05-05 02:14 33.63389 -84.58337 4930 ft 253 kts 268°
2026-05-05 02:14 33.63409 -84.60468 5385 ft 258 kts 268°
2026-05-05 02:15 33.63429 -84.62642 5840 ft 264 kts 268°
2026-05-05 02:15 33.63304 -84.64825 6282 ft 261 kts 253°
2026-05-05 02:15 33.62484 -84.66739 6732 ft 261 kts 228°
2026-05-05 02:15 33.61055 -84.68077 7192 ft 264 kts 210°
2026-05-05 02:16 33.59379 -84.69046 7647 ft 271 kts 203°
2026-05-05 02:16 33.57533 -84.69548 8097 ft 277 kts 184°
2026-05-05 02:16 33.55605 -84.69418 8550 ft 279 kts 175°
2026-05-05 02:16 33.53678 -84.69072 9001 ft 282 kts 172°
2026-05-05 02:17 33.51739 -84.68661 9455 ft 284 kts 172°
2026-05-05 02:17 33.49780 -84.68270 9905 ft 286 kts 173°
2026-05-05 02:17 33.47809 -84.67891 10356 ft 288 kts 173°
2026-05-05 02:17 33.45821 -84.67514 10808 ft 290 kts 173°
2026-05-05 02:18 33.43825 -84.67040 11251 ft 295 kts 163°
2026-05-05 02:18 33.42055 -84.65832 11695 ft 303 kts 141°
2026-05-05 02:18 33.40644 -84.63934 12153 ft 308 kts 128°
2026-05-05 02:18 33.39460 -84.61779 12605 ft 312 kts 123°
2026-05-05 02:19 33.38372 -84.59521 13056 ft 315 kts 121°
2026-05-05 02:19 33.37304 -84.57221 13508 ft 318 kts 121°
2026-05-05 02:19 33.36217 -84.54907 13960 ft 320 kts 121°
2026-05-05 02:19 33.35112 -84.52578 14411 ft 323 kts 122°
2026-05-05 02:20 33.33992 -84.50236 14863 ft 325 kts 122°
2026-05-05 02:20 33.32861 -84.47881 15314 ft 328 kts 122°
2026-05-05 02:20 33.31717 -84.45505 15765 ft 331 kts 122°
2026-05-05 02:20 33.30561 -84.43111 16217 ft 333 kts 122°
2026-05-05 02:21 33.29397 -84.40705 16669 ft 336 kts 122°
2026-05-05 02:21 33.28220 -84.38274 17120 ft 339 kts 123°
2026-05-05 02:21 33.27033 -84.35824 17571 ft 342 kts 123°
2026-05-05 02:21 33.26591 -84.34913 17739 ft 342 kts 123°
2026-05-05 02:22 33.25521 -84.32708 18141 ft 345 kts 123°
2026-05-05 02:22 33.24316 -84.30195 18594 ft 353 kts 122°
2026-05-05 02:22 33.23093 -84.27606 19048 ft 361 kts 122°
2026-05-05 02:22 33.21847 -84.25003 19496 ft 369 kts 122°
2026-05-05 02:23 33.20550 -84.22318 19948 ft 377 kts 122°
2026-05-05 02:23 33.19222 -84.19584 20401 ft 384 kts 122°
2026-05-05 02:23 33.17864 -84.16796 20854 ft 391 kts 122°
2026-05-05 02:23 33.16485 -84.13971 21305 ft 397 kts 122°
2026-05-05 02:24 33.15082 -84.11100 21758 ft 403 kts 122°
2026-05-05 02:24 33.13655 -84.08182 22211 ft 409 kts 122°
2026-05-05 02:24 33.12216 -84.05240 22662 ft 414 kts 122°
2026-05-05 02:24 33.10756 -84.02258 23114 ft 418 kts 122°
2026-05-05 02:25 33.09143 -83.99354 23565 ft 420 kts 130°
2026-05-05 02:25 33.07191 -83.96760 24016 ft 421 kts 139°
2026-05-05 02:25 33.04953 -83.94506 24469 ft 421 kts 146°
2026-05-05 02:25 33.02575 -83.92447 24921 ft 423 kts 149°
2026-05-05 02:26 33.00137 -83.90468 25372 ft 426 kts 149°
2026-05-05 02:26 32.97686 -83.88466 25823 ft 428 kts 149°
2026-05-05 02:26 32.95259 -83.86461 26270 ft 430 kts 148°
2026-05-05 02:26 32.92809 -83.84405 26721 ft 432 kts 148°
2026-05-05 02:27 32.90339 -83.82340 27172 ft 433 kts 149°
2026-05-05 02:27 32.87869 -83.80282 27623 ft 434 kts 149°
2026-05-05 02:27 32.85388 -83.78218 28074 ft 435 kts 149°
2026-05-05 02:27 32.82907 -83.76156 28525 ft 435 kts 149°
2026-05-05 02:28 32.80426 -83.74096 28975 ft 435 kts 149°
2026-05-05 02:28 32.77941 -83.72033 29425 ft 435 kts 149°
2026-05-05 02:28 32.75463 -83.69977 29875 ft 435 kts 149°
2026-05-05 02:28 32.72964 -83.67905 30032 ft 443 kts 149°
2026-05-05 02:29 32.70407 -83.65786 30068 ft 452 kts 149°
2026-05-05 02:29 32.67137 -83.63036 30071 ft 460 kts 147°
2026-05-05 02:30 32.62014 -83.58484 30064 ft 459 kts 147°
2026-05-05 02:30 32.56901 -83.53954 30062 ft 459 kts 147°
2026-05-05 02:31 32.51774 -83.49435 30070 ft 459 kts 147°
2026-05-05 02:31 32.46641 -83.44923 30074 ft 459 kts 147°
2026-05-05 02:32 32.41510 -83.40418 30082 ft 459 kts 147°
2026-05-05 02:32 32.36353 -83.35857 30175 ft 469 kts 147°
2026-05-05 02:33 32.31037 -83.31183 30447 ft 482 kts 147°
2026-05-05 02:33 32.28331 -83.28811 30699 ft 485 kts 147°
2026-05-05 02:33 32.25614 -83.26431 30983 ft 487 kts 147°
2026-05-05 02:33 32.22927 -83.24081 31291 ft 488 kts 147°
2026-05-05 02:34 32.20202 -83.21698 31645 ft 488 kts 148°
2026-05-05 02:34 32.17465 -83.19308 31943 ft 489 kts 148°
2026-05-05 02:34 32.14732 -83.16923 32282 ft 489 kts 148°
2026-05-05 02:34 32.11989 -83.14531 32584 ft 490 kts 148°
2026-05-05 02:35 32.09244 -83.12138 32873 ft 491 kts 148°
2026-05-05 02:35 32.06486 -83.09737 33159 ft 492 kts 148°
2026-05-05 02:35 32.03735 -83.07332 33515 ft 492 kts 148°
2026-05-05 02:35 32.00986 -83.04930 33776 ft 493 kts 148°
2026-05-05 02:36 31.98217 -83.02522 33947 ft 497 kts 148°
2026-05-05 02:36 31.92599 -82.97654 34342 ft 502 kts 149°
2026-05-05 02:36 31.91729 -82.96902 34456 ft 501 kts 149°
2026-05-05 02:37 31.88917 -82.94470 34773 ft 501 kts 149°
2026-05-05 02:37 31.86105 -82.92039 35042 ft 502 kts 149°
2026-05-05 02:37 31.83278 -82.89596 35081 ft 505 kts 149°
2026-05-05 02:38 31.77612 -82.84681 35092 ft 505 kts 148°
2026-05-05 02:38 31.72192 -82.79539 35095 ft 502 kts 146°
2026-05-05 02:39 31.66787 -82.74358 35097 ft 501 kts 146°
2026-05-05 02:39 31.61363 -82.69207 35097 ft 500 kts 146°
2026-05-05 02:40 31.55939 -82.64080 35096 ft 499 kts 146°
2026-05-05 02:40 31.50533 -82.58963 35094 ft 500 kts 146°
2026-05-05 02:41 31.45167 -82.53872 35093 ft 499 kts 146°
2026-05-05 02:41 31.39764 -82.48771 35097 ft 499 kts 146°
2026-05-05 02:42 31.34353 -82.43677 35104 ft 499 kts 146°
2026-05-05 02:42 31.28939 -82.38590 35109 ft 499 kts 146°
2026-05-05 02:43 31.23552 -82.33537 35110 ft 499 kts 146°
2026-05-05 02:43 31.18114 -82.28444 35111 ft 502 kts 146°
2026-05-05 02:44 31.12665 -82.23348 35111 ft 502 kts 147°
2026-05-05 02:44 31.09117 -82.20034 35112 ft 502 kts 146°
2026-05-05 02:45 31.03650 -82.14934 35113 ft 502 kts 147°
2026-05-05 02:45 30.98184 -82.09842 35114 ft 503 kts 147°
2026-05-05 02:46 30.92740 -82.04779 35113 ft 503 kts 147°
2026-05-05 02:46 30.87187 -81.99738 35110 ft 509 kts 150°
2026-05-05 02:47 30.82152 -81.96272 35108 ft 502 kts 160°
2026-05-05 02:47 30.75862 -81.92853 35105 ft 496 kts 163°
2026-05-05 02:48 30.69550 -81.89556 35104 ft 498 kts 163°
2026-05-05 02:48 30.63218 -81.86251 35099 ft 498 kts 163°
2026-05-05 02:49 30.56880 -81.82945 35102 ft 499 kts 162°
2026-05-05 02:49 30.50543 -81.79642 35100 ft 500 kts 162°
2026-05-05 02:50 30.44240 -81.76341 35099 ft 500 kts 162°
2026-05-05 02:50 30.37884 -81.73025 35107 ft 500 kts 163°
2026-05-05 02:51 30.31532 -81.69720 35119 ft 500 kts 163°
2026-05-05 02:51 30.25182 -81.66423 35122 ft 500 kts 163°
2026-05-05 02:52 30.21086 -81.64298 35120 ft 500 kts 163°
2026-05-05 02:52 30.14731 -81.61006 35120 ft 500 kts 163°
2026-05-05 02:53 30.08379 -81.57721 35121 ft 500 kts 163°
2026-05-05 02:53 30.02016 -81.54434 35122 ft 500 kts 163°
2026-05-05 02:54 29.95663 -81.51157 35124 ft 501 kts 163°
2026-05-05 02:54 29.89294 -81.47876 35125 ft 501 kts 163°
2026-05-05 02:55 29.82936 -81.44606 35124 ft 500 kts 163°
2026-05-05 02:55 29.76617 -81.41360 35122 ft 500 kts 163°
2026-05-05 02:56 29.70243 -81.38091 35120 ft 500 kts 163°
2026-05-05 02:56 29.63886 -81.34834 35119 ft 500 kts 163°
2026-05-05 02:57 29.57566 -81.31601 35119 ft 499 kts 163°
2026-05-05 02:57 29.51230 -81.28364 35119 ft 499 kts 163°
2026-05-05 02:58 29.44880 -81.25125 35118 ft 498 kts 163°
2026-05-05 02:58 29.38545 -81.21898 35118 ft 497 kts 163°
2026-05-05 02:59 29.32219 -81.18679 35121 ft 498 kts 163°
2026-05-05 02:59 29.28163 -81.16618 35122 ft 498 kts 163°
2026-05-05 03:00 29.21863 -81.13420 35121 ft 497 kts 163°
2026-05-05 03:00 29.15532 -81.10210 35120 ft 497 kts 163°
2026-05-05 03:01 29.09199 -81.07003 35119 ft 497 kts 163°
2026-05-05 03:01 29.02863 -81.03800 35113 ft 497 kts 163°
2026-05-05 03:02 28.96571 -81.00606 35111 ft 497 kts 163°
2026-05-05 03:02 28.90258 -80.97405 35111 ft 496 kts 163°
2026-05-05 03:03 28.83940 -80.94222 35108 ft 496 kts 163°
2026-05-05 03:03 28.77619 -80.91040 35105 ft 496 kts 163°
2026-05-05 03:04 28.71340 -80.87880 35102 ft 495 kts 163°
2026-05-05 03:04 28.64964 -80.85055 35101 ft 489 kts 169°
2026-05-05 03:05 28.58476 -80.82704 35100 ft 488 kts 169°
2026-05-05 03:05 28.51998 -80.80324 35098 ft 489 kts 169°
2026-05-05 03:06 28.45573 -80.77935 35099 ft 488 kts 169°
2026-05-05 03:06 28.39129 -80.75530 35094 ft 487 kts 169°
2026-05-05 03:07 28.34887 -80.73941 35087 ft 487 kts 169°
2026-05-05 03:07 28.28535 -80.71289 35072 ft 494 kts 160°
2026-05-05 03:08 28.22789 -80.66814 35065 ft 509 kts 143°
2026-05-05 03:08 28.17874 -80.60989 35065 ft 511 kts 138°
2026-05-05 03:09 28.13056 -80.55115 35069 ft 510 kts 138°
2026-05-05 03:09 28.08214 -80.49228 35074 ft 510 kts 138°
2026-05-05 03:10 28.03378 -80.43360 35080 ft 508 kts 138°
2026-05-05 03:10 27.98534 -80.37489 35081 ft 508 kts 138°
2026-05-05 03:11 27.93764 -80.31664 35080 ft 507 kts 138°
2026-05-05 03:11 27.88953 -80.25821 35080 ft 507 kts 139°
2026-05-05 03:12 27.84142 -80.19995 35080 ft 506 kts 139°
2026-05-05 03:12 27.79322 -80.14170 35085 ft 507 kts 139°
2026-05-05 03:13 27.74509 -80.08362 35085 ft 507 kts 139°
2026-05-05 03:13 27.69689 -80.02555 35085 ft 506 kts 139°
2026-05-05 03:14 27.64872 -79.96759 35083 ft 505 kts 139°
2026-05-05 03:14 27.61716 -79.92967 35083 ft 504 kts 139°
2026-05-05 03:15 27.56937 -79.87230 35083 ft 505 kts 139°
2026-05-05 03:15 27.52115 -79.81450 35078 ft 505 kts 139°
2026-05-05 03:16 27.47302 -79.75688 35074 ft 505 kts 139°
2026-05-05 03:16 27.42485 -79.69930 35072 ft 505 kts 139°
2026-05-05 03:17 27.37659 -79.64168 35072 ft 505 kts 139°
2026-05-05 03:17 27.32864 -79.58451 35071 ft 505 kts 139°
2026-05-05 03:18 27.28046 -79.52714 35070 ft 504 kts 140°
2026-05-05 03:18 27.23222 -79.46979 35069 ft 504 kts 140°
2026-05-05 03:19 27.15986 -79.38389 35065 ft 503 kts 140°
2026-05-05 03:19 27.11164 -79.32674 35061 ft 504 kts 140°
2026-05-05 03:20 27.06336 -79.26961 35060 ft 504 kts 140°
2026-05-05 03:20 27.01513 -79.21261 35059 ft 504 kts 140°
2026-05-05 03:21 26.96677 -79.15553 35057 ft 504 kts 140°
2026-05-05 03:21 26.93527 -79.11838 35056 ft 503 kts 140°
2026-05-05 03:22 26.88697 -79.06150 35055 ft 503 kts 140°
2026-05-05 03:22 26.83895 -79.00502 35052 ft 494 kts 140°
2026-05-05 03:23 26.79194 -78.94978 35053 ft 485 kts 140°
2026-05-05 03:23 26.74563 -78.89545 34719 ft 484 kts 141°
2026-05-05 03:24 26.72249 -78.86834 34315 ft 478 kts 140°
2026-05-05 03:24 26.69958 -78.84149 33823 ft 475 kts 140°
2026-05-05 03:24 26.67679 -78.81481 33324 ft 473 kts 140°
2026-05-05 03:24 26.65421 -78.78810 32837 ft 470 kts 140°
2026-05-05 03:25 26.63173 -78.76167 32349 ft 468 kts 140°
2026-05-05 03:25 26.60962 -78.73579 31875 ft 465 kts 140°
2026-05-05 03:25 26.58730 -78.70973 31395 ft 463 kts 140°
2026-05-05 03:25 26.56501 -78.68373 30919 ft 461 kts 140°
2026-05-05 03:26 26.54293 -78.65799 30447 ft 458 kts 140°
2026-05-05 03:26 26.52089 -78.63231 29983 ft 456 kts 140°
2026-05-05 03:26 26.49899 -78.60679 29526 ft 454 kts 141°
2026-05-05 03:26 26.47712 -78.58131 29065 ft 452 kts 140°
2026-05-05 03:27 26.45541 -78.55598 28603 ft 450 kts 140°
2026-05-05 03:27 26.43462 -78.52968 28145 ft 451 kts 136°
2026-05-05 03:27 26.41533 -78.50266 27685 ft 450 kts 134°
2026-05-05 03:27 26.39636 -78.47483 27220 ft 448 kts 133°
2026-05-05 03:28 26.37737 -78.44746 26768 ft 445 kts 134°
2026-05-05 03:28 26.35829 -78.42041 26313 ft 442 kts 134°
2026-05-05 03:28 26.33924 -78.39366 25841 ft 439 kts 134°
2026-05-05 03:28 26.32021 -78.36702 25375 ft 437 kts 133°
2026-05-05 03:29 26.30768 -78.34947 25070 ft 436 kts 133°
2026-05-05 03:29 26.29516 -78.33196 24763 ft 435 kts 133°
2026-05-05 03:29 26.27633 -78.30564 24307 ft 432 kts 133°
2026-05-05 03:29 26.25761 -78.27950 23850 ft 430 kts 133°
2026-05-05 03:30 26.23899 -78.25351 23390 ft 428 kts 133°
2026-05-05 03:30 26.22070 -78.22799 22935 ft 426 kts 133°
2026-05-05 03:30 26.20226 -78.20224 22478 ft 424 kts 133°
2026-05-05 03:30 26.18388 -78.17664 22024 ft 421 kts 133°
2026-05-05 03:31 26.16565 -78.15125 21571 ft 419 kts 133°
2026-05-05 03:31 26.14752 -78.12602 21123 ft 416 kts 133°
2026-05-05 03:31 26.12948 -78.10086 20675 ft 414 kts 133°
2026-05-05 03:31 26.11169 -78.07581 20236 ft 411 kts 133°
2026-05-05 03:32 26.09392 -78.05097 19791 ft 409 kts 133°
2026-05-05 03:32 26.07623 -78.02634 19352 ft 406 kts 133°
2026-05-05 03:32 26.05865 -78.00191 18914 ft 403 kts 133°
2026-05-05 03:32 26.04137 -77.97793 18482 ft 401 kts 133°
2026-05-05 03:33 26.02397 -77.95381 18055 ft 398 kts 133°
2026-05-05 03:33 26.00673 -77.92990 17622 ft 395 kts 133°
2026-05-05 03:33 25.98957 -77.90613 17198 ft 393 kts 133°
2026-05-05 03:33 25.97254 -77.88255 16777 ft 390 kts 133°
2026-05-05 03:34 25.95556 -77.85904 16356 ft 387 kts 133°
2026-05-05 03:34 25.93880 -77.83583 15938 ft 384 kts 133°
2026-05-05 03:34 25.92213 -77.81272 15523 ft 381 kts 133°
2026-05-05 03:34 25.91115 -77.79757 15249 ft 379 kts 133°
2026-05-05 03:35 25.89465 -77.77479 14837 ft 376 kts 133°
2026-05-05 03:35 25.87836 -77.75210 14428 ft 374 kts 133°
2026-05-05 03:35 25.86222 -77.72967 14023 ft 371 kts 133°
2026-05-05 03:35 25.84096 -77.70026 13490 ft 367 kts 133°
2026-05-05 03:36 25.82503 -77.67828 13090 ft 364 kts 133°
2026-05-05 03:36 25.81434 -77.66354 12821 ft 362 kts 133°
2026-05-05 03:36 25.79859 -77.64185 12420 ft 359 kts 133°
2026-05-05 03:36 25.79381 -77.63526 12298 ft 358 kts 133°
2026-05-05 03:37 25.77822 -77.61381 11898 ft 355 kts 133°
2026-05-05 03:37 25.76291 -77.59276 11514 ft 353 kts 133°
2026-05-05 03:37 25.74756 -77.57165 11136 ft 349 kts 133°
2026-05-05 03:37 25.73239 -77.55080 10767 ft 346 kts 132°
2026-05-05 03:38 25.71732 -77.53007 10400 ft 343 kts 132°
2026-05-05 03:38 25.70227 -77.50988 10189 ft 334 kts 136°
2026-05-05 03:38 25.68452 -77.49468 10104 ft 315 kts 156°
2026-05-05 03:38 25.66433 -77.48742 10070 ft 297 kts 172°
2026-05-05 03:39 25.64428 -77.48424 9914 ft 289 kts 178°
2026-05-05 03:39 25.62397 -77.48278 9314 ft 296 kts 180°
2026-05-05 03:39 25.60335 -77.48185 8683 ft 294 kts 180°
2026-05-05 03:39 25.58311 -77.48075 8057 ft 288 kts 179°
2026-05-05 03:40 25.56323 -77.47959 7431 ft 283 kts 179°
2026-05-05 03:40 25.54392 -77.47844 6821 ft 279 kts 178°
2026-05-05 03:40 25.52485 -77.47887 6216 ft 271 kts 190°
2026-05-05 03:40 25.50688 -77.48418 5613 ft 265 kts 199°
2026-05-05 03:41 25.48972 -77.49118 4987 ft 261 kts 201°
2026-05-05 03:41 25.47300 -77.49880 4361 ft 258 kts 202°
2026-05-05 03:41 25.45654 -77.50646 3735 ft 255 kts 201°
2026-05-05 03:41 25.44020 -77.51405 3106 ft 253 kts 200°
2026-05-05 03:42 25.42396 -77.52157 2502 ft 253 kts 200°
2026-05-05 03:42 25.40787 -77.52900 2228 ft 248 kts 200°
2026-05-05 03:42 25.39190 -77.53637 2133 ft 248 kts 199°
2026-05-05 03:42 25.37645 -77.54350 2078 ft 234 kts 199°
2026-05-05 03:43 25.36164 -77.55033 2010 ft 226 kts 199°
2026-05-05 03:43 25.34752 -77.55685 2002 ft 219 kts 199°
2026-05-05 03:43 25.33362 -77.56325 1997 ft 214 kts 199°
2026-05-05 03:43 25.31997 -77.56955 1996 ft 211 kts 199°
2026-05-05 03:44 25.30647 -77.57577 2015 ft 208 kts 199°
2026-05-05 03:44 25.30221 -77.57774 2032 ft 206 kts 199°
2026-05-05 03:44 25.28907 -77.58379 2022 ft 203 kts 199°
2026-05-05 03:44 25.27650 -77.58959 1989 ft 189 kts 199°
2026-05-05 03:45 25.26469 -77.59503 1959 ft 179 kts 199°
2026-05-05 03:45 25.25332 -77.60027 1950 ft 174 kts 199°
2026-05-05 03:45 25.24239 -77.60530 1958 ft 171 kts 199°
2026-05-05 03:45 25.23147 -77.61033 1970 ft 170 kts 198°
2026-05-05 03:46 25.22055 -77.61536 1983 ft 170 kts 198°
2026-05-05 03:46 25.20963 -77.62039 1991 ft 170 kts 198°
2026-05-05 03:46 25.19872 -77.62541 1996 ft 170 kts 198°
2026-05-05 03:46 25.18740 -77.62687 1935 ft 163 kts 159°
2026-05-05 03:47 25.17879 -77.61944 1987 ft 157 kts 132°
2026-05-05 03:47 25.17153 -77.61032 2025 ft 158 kts 130°
2026-05-05 03:47 25.16412 -77.60128 2016 ft 159 kts 131°
2026-05-05 03:47 25.15649 -77.59238 2008 ft 159 kts 132°
2026-05-05 03:48 25.14878 -77.58360 2003 ft 159 kts 133°
2026-05-05 03:48 25.14111 -77.57497 2000 ft 159 kts 133°
2026-05-05 03:48 25.13331 -77.56625 1999 ft 159 kts 134°
2026-05-05 03:48 25.12551 -77.55755 1990 ft 160 kts 134°
2026-05-05 03:49 25.11767 -77.54883 1836 ft 160 kts 134°
2026-05-05 03:49 25.10984 -77.54012 1624 ft 159 kts 134°
2026-05-05 03:49 25.10208 -77.53149 1413 ft 158 kts 134°
2026-05-05 03:49 25.09437 -77.52291 1204 ft 157 kts 135°
2026-05-05 03:50 25.08668 -77.51436 996 ft 157 kts 135°
2026-05-05 03:50 25.07902 -77.50585 788 ft 156 kts 135°
2026-05-05 03:50 25.07137 -77.49736 581 ft 156 kts 135°
2026-05-05 03:50 25.06377 -77.48891 375 ft 155 kts 135°
2026-05-05 03:51 25.05620 -77.48042 181 ft 154 kts 134°
2026-05-05 03:51 25.04882 -77.47216 32 ft 146 kts 135°
2026-05-05 03:51 25.04263 -77.46521 24 ft 94 kts 135°
2026-05-05 03:51 25.03969 -77.46199 24 ft 43 kts 135°
2026-05-05 03:52 25.03823 -77.46042 24 ft 26 kts 136°
2026-05-05 03:52 25.03761 -77.45948 24 ft 11 kts 77°
2026-05-05 03:52 25.03811 -77.45891 24 ft 11 kts
2026-05-05 03:52 25.03875 -77.45944 24 ft 14 kts 314°
2026-05-05 03:53 25.03953 -77.46031 24 ft 16 kts 314°
2026-05-05 03:53 25.04030 -77.46117 24 ft 15 kts 314°
2026-05-05 03:53 25.04101 -77.46198 24 ft 14 kts 314°
2026-05-05 03:53 25.04178 -77.46260 24 ft 13 kts 332°
2026-05-05 03:54 25.04256 -77.46309 24 ft 13 kts 329°
2026-05-05 03:54 25.04330 -77.46356 24 ft 12 kts 330°
2026-05-05 03:54 25.04403 -77.46402 24 ft 12 kts 330°
2026-05-05 03:54 25.04472 -77.46446 24 ft 11 kts 330°
2026-05-05 03:55 25.04542 -77.46482 24 ft 11 kts 333°
2026-05-05 03:55 25.04605 -77.46521 24 ft 8 kts 329°
2026-05-05 03:55 25.04643 -77.46564 24 ft 8 kts 310°
2026-05-05 03:55 25.04689 -77.46587 24 ft 10 kts
2026-05-05 03:56 25.04724 -77.46588 24 ft 1 kts 349°
2026-05-05 03:56 25.04772 -77.46594 24 ft 6 kts 353°
2026-05-05 03:56 25.04786 -77.46596 24 ft 0 kts 353°